STARLINK-32709 (62439 NORAD) Tracking and Keplerian Element Data

This shows tracking and keplerian element data for the satellite.

Feedback or suggestion? Click here.




ElementValue
Catalog62439
NameSTARLINK-32709
Epoch Orbit680
Epoch Day35.19620037
Epoch Year2025
RAAN35.0487
Inclination53.1627
Eccentricity0.0001475
Argument of Perigee79.4075
Mean Anonmoly280.7096
Mean Motion15.39639194
Decay Rate1.385E-05
L11 62439U 24251H 25035.19620037 .00001385 00000+0 44572-4 0 9993
L22 62439 53.1627 35.0487 0001475 79.4075 280.7096 15.39639194 6802



Live tracking and technical data element details for STARLINK-32709 (NORAD 62439). STARLINK-32709 can be tracked NOW for your location showing map with azimuth and elevation plus other details from your city location.







IsCatalogInMostPopularTable: catalog: 62439, numindb: 38
Update: records affected: 1



GetName: 62439 STARLINK-32709

Hit Count: updated at: Sat, 24 May 2025 17:19:23 GMT